Location: Vancouver
(49.2500°N, 123.1330°W)
Time: 22:06:57
(UTC-07:00)

ERS-2 - Visible Passes

Search period start: 27 August 2014 00:00
Search period end: 06 September 2014 00:00
Orbit: 530 x 537 km, 98.6° (Epoch: 25 August)

Date Brightness Start Highest point End Pass type
(mag) Time Alt. Az. Time Alt. Az. Time Alt. Az.
27 Aug 3.1 21:41:29 10° N 21:45:15 51° WNW 21:48:58 10° SW visible
28 Aug 2.6 21:32:10 10° N 21:36:00 66° WNW 21:39:48 10° SSW visible
29 Aug 2.3 21:22:53 10° NNE 21:26:45 85° WNW 21:30:35 10° SSW visible
29 Aug 5.7 22:59:39 10° NW 23:00:23 11° NW 23:01:08 10° WNW visible
30 Aug 2.1 21:13:36 10° NNE 21:17:28 76° ESE 21:21:18 10° S visible
30 Aug 5.5 22:49:29 10° NNW 22:51:14 13° WNW 22:52:59 10° W visible
31 Aug 2.3 21:04:21 10° NNE 21:08:10 58° ESE 21:11:57 10° S visible
31 Aug 5.3 22:39:44 10° NNW 22:42:04 16° WNW 22:44:23 10° W visible
01 Sep 2.5 20:55:08 10° NNE 20:58:51 45° E 21:02:32 10° S visible
01 Sep 5.0 22:30:07 10° NNW 22:32:52 19° WNW 22:35:36 10° WSW visible
02 Sep 2.8 20:45:56 10° NNE 20:49:30 35° E 20:53:02 10° SSE visible
02 Sep 4.7 22:20:34 10° N 22:23:39 23° WNW 22:26:42 10° WSW visible
03 Sep 3.2 20:36:47 10° NE 20:40:08 28° E 20:43:28 10° SSE visible
03 Sep 4.3 22:11:05 10° N 22:14:25 28° WNW 22:17:43 10° SW visible
04 Sep 3.5 20:27:41 10° NE 20:30:45 22° E 20:33:48 10° SSE visible
04 Sep 3.9 22:01:37 10° N 22:05:09 35° WNW 22:08:40 10° SW visible
05 Sep 3.7 20:18:40 10° NE 20:21:21 18° E 20:24:00 10° SE visible
05 Sep 3.4 21:52:12 10° N 21:55:52 44° WNW 21:59:32 10° SW visible
